Location: Chacón
(10.5789°N, 66.9317°W)
Time: 06:19:14
(UTC+00:00)

Sakura Rocket - Pass Details

Date: 17 August 2024
Orbit: 475 x 1710 km, 28.7° (Epoch: 16 September)

Event Time Altitude Azimuth Distance (km) Brightness Sun altitude
Rises 00:14:35 0° 264° (W) 2,998 7.7 -21.9°
Reaches altitude 10° 00:17:30 10° 277° (W) 1,915 6.6 -22.5°
Maximum altitude 00:21:02 25° 334° (NNW) 1,088 4.8 -23.4°
Enters shadow 00:22:41 19° 12° (NNE) 1,254 4.7 -23.7°
